Tracking 32422 objects as of 7-Dec-2025
HD Live streaming from Space Station
objects crossing your sky now

STARLINK-5601

Track STARLINK-5601 now!
10-day predictions
STARLINK-5601 is classified as:


NORAD ID: 55744
Int'l Code: 2023-028D
Perigee: 577.0 km
Apogee: 581.4 km
Inclination: 70.0 °
Period: 96.1 minutes
Semi major axis: 6950 km
RCS: Unknown
Launch date: March 3, 2023
Source: United States (US)
Launch site: AIR FORCE WESTERN TEST RANGE (AFWTR)
Your satellite tracking list
Your tracking list is empty




NASA's NSSDC Master Catalog

Two Line Element Set (TLE):
1 55744U 23028D   25340.80662266  .00000299  00000-0  32811-4 0  9999
2 55744  69.9994 118.7898 0003191 269.7506  90.3287 14.98332515152125
Source of the keplerian elements: AFSPC